Winslow, AZ

6:03 AM MST on September 19, 2017 (GMT -0700)
Winslow-Lindbergh Regional

Weather History for KINW - March, 2014

Change the Weather History Date:

Sunday, March 2, 2014

  Actual Average Record
Temperature  
Mean Temperature 45 °F 44 °F  
Max Temperature 56 °F 60 °F 79 °F (2009)
Min Temperature 33 °F 28 °F 9 °F (2002)
Degree Days  
Heating Degree Days 20 21  
Month to date heating degree days 41 42  
Since 1 July heating degree days 3408 3537  
Cooling Degree Days 0 0  
Month to date cooling degree days 0 0  
Year to date cooling degree days 0 0  
Moisture  
Dew Point 36 °F    
Average Humidity 70    
Maximum Humidity 92    
Minimum Humidity 47    
Precipitation  
Precipitation 0.18 in 0.01 in 0.18 in (1966)
Month to date precipitation 0.99 0.03  
Year to date precipitation 1.01 1.01  
Sea Level Pressure  
Sea Level Pressure 30.01 in    
Wind  
Wind Speed 7 mph (SW)    
Max Wind Speed 14 mph    
Max Gust Speed 20 mph    
Visibility 10 miles    
Events Rain , Snow    
T = Trace of Precipitation, MM = Missing Value Source: NWS Daily Summary

Daily Weather History Graph

Daily Weather History Graph

Search for Another Location

Airport or City:

Trip Planner

Search our weather history database for the weather conditions in past years. The results will help you decide how hot, cold, wet, or windy it might be!

Date:

Astronomy

Mar. 02, 2014 Rise Set
Actual Time 6:50 AM MST 6:19 PM MST
Civil Twilight 6:25 AM MST 6:44 PM MST
Nautical Twilight 5:56 AM MST 7:14 PM MST
Astronomical Twilight 5:26 AM MST 7:43 PM MST
Moon 7:29 AM MST (3/2) 8:13 PM MST (3/2)
Length of Visible Light 12h 19m
Length of Day
11h 28m
Waxing Crescent, 3% of the Moon is Illuminated
Mar 2
Waxing Crescent
Mar 8
First Quarter
Mar 16
Full
Mar 23
Last Quarter
Mar 30
New

Hourly Weather History & Observations

Time (MST) Temp. Windchill Dew Point Humidity Pressure Visibility Wind Dir Wind Speed Gust Speed Precip Events Conditions
12:21 AM 33.1 °F 26.9 °F 33.1 °F 100% 29.94 in 2.0 mi SW 6.9 mph - 0.06 in Snow Light Snow
12:35 AM 33.1 °F 27.7 °F 33.1 °F 100% 29.94 in 4.0 mi WSW 5.8 mph - 0.10 in Snow Light Snow
12:56 AM 34.0 °F - 33.1 °F 96% 29.91 in 9.0 mi Calm Calm - 0.13 in Rain Light Rain
1:49 AM 35.1 °F 32.2 °F 34.0 °F 96% 29.92 in 10.0 mi East 3.5 mph - 0.04 in Rain Light Rain
1:56 AM 35.1 °F 32.2 °F 34.0 °F 96% 29.88 in 10.0 mi East 3.5 mph - 0.04 in Rain Light Rain
2:56 AM 36.0 °F 32.1 °F 35.1 °F 97% 29.87 in 10.0 mi SSE 4.6 mph - 0.00 in   Overcast
3:56 AM 39.0 °F 34.0 °F 36.0 °F 89% 29.88 in 10.0 mi SSW 6.9 mph - 0.01 in Rain Light Rain
4:56 AM 39.9 °F 33.9 °F 37.9 °F 93% 29.91 in 10.0 mi SW 9.2 mph - 0.01 in Rain Light Rain
5:56 AM 41.0 °F 36.4 °F 36.0 °F 82% 29.94 in 10.0 mi SW 6.9 mph - 0.00 in   Overcast
6:56 AM 39.9 °F 35.1 °F 36.0 °F 86% 29.98 in 10.0 mi West 6.9 mph - N/A   Overcast
7:56 AM 41.0 °F 38.0 °F 37.0 °F 86% 30.02 in 10.0 mi WSW 4.6 mph - N/A   Overcast
8:56 AM 45.0 °F 38.9 °F 37.0 °F 74% 30.04 in 10.0 mi West 12.7 mph - N/A   Clear
9:56 AM 48.0 °F - 37.0 °F 66% 30.06 in 10.0 mi West 9.2 mph - N/A   Partly Cloudy
10:56 AM 50.0 °F - 36.0 °F 59% 30.06 in 10.0 mi WNW 8.1 mph - N/A   Mostly Cloudy
11:56 AM 51.1 °F - 35.1 °F 54% 30.08 in 10.0 mi North 3.5 mph - N/A   Overcast
12:56 PM 51.1 °F - 37.0 °F 59% 30.07 in 10.0 mi South 9.2 mph - N/A   Overcast
1:56 PM 53.1 °F - 37.0 °F 55% 30.04 in 10.0 mi West 8.1 mph - N/A   Overcast
2:56 PM 55.0 °F - 35.1 °F 47% 30.02 in 10.0 mi Variable 4.6 mph - N/A   Overcast
3:56 PM 54.0 °F - 37.0 °F 53% 30.02 in 10.0 mi SSW 11.5 mph - N/A   Mostly Cloudy
4:56 PM 53.1 °F - 37.0 °F 55% 30.02 in 10.0 mi SSW 11.5 mph - N/A   Clear
5:56 PM 51.1 °F - 36.0 °F 56% 30.01 in 10.0 mi SW 9.2 mph - N/A   Clear
6:56 PM 48.0 °F - 37.9 °F 68% 30.07 in 10.0 mi WSW 10.4 mph - N/A   Clear
7:56 PM 45.0 °F 41.2 °F 37.0 °F 74% 30.09 in 10.0 mi SW 6.9 mph - N/A   Clear
8:56 PM 43.0 °F 40.3 °F 37.9 °F 82% 30.09 in 10.0 mi SSW 4.6 mph - N/A   Clear
9:56 PM 43.0 °F 38.2 °F 37.0 °F 80% 30.10 in 10.0 mi SSW 8.1 mph - N/A   Clear
10:56 PM 42.1 °F 39.2 °F 37.0 °F 82% 30.11 in 10.0 mi SSW 4.6 mph - N/A   Clear
11:56 PM 42.1 °F - 37.0 °F 82% 30.09 in 10.0 mi Calm Calm - N/A   Clear